KD6VLN-14 Weather Reports


Display with metric or nautical units.
time (UTC)temp
F
wind
direction
speed
MPH
gust
MPH
rain 1hr
in
rain 24hr
in
rain mn
in
humidity
%
barometer
mb
20260505232908 77 263 12.0 21.0 0.00 0.00 0.00 36
20260505232724 78 252 9.0 17.0 0.00 0.00 0.00 36
20260505232409 78 252 9.0 17.0 0.00 0.00 0.00 36
20260505232245 77 240 11.0 17.0 0.00 0.00 0.00 36
20260505231908 77 240 11.0 17.0 0.00 0.00 0.00 36
20260505231708 76 237 10.0 17.0 0.00 0.00 0.00 36
20260505231408 76 237 10.0 17.0 0.00 0.00 0.00 36
20260505231131 75 223 11.0 18.0 0.00 0.00 0.00 36
20260505230908 75 223 11.0 18.0 0.00 0.00 0.00 36
20260505230559 76 226 12.0 19.0 0.00 0.00 0.00 36
20260505230408 76 226 12.0 19.0 0.00 0.00 0.00 36
20260505230226 76 233 12.0 19.0 0.00 0.00 0.00 36
20260505225908 76 233 12.0 19.0 0.00 0.00 0.00 36
20260505225639 77 235 11.0 16.0 0.00 0.00 0.00 36
20260505225408 77 235 11.0 16.0 0.00 0.00 0.00 36
20260505225041 78 243 9.0 18.0 0.00 0.00 0.00 36
20260505224909 78 243 9.0 18.0 0.00 0.00 0.00 36
20260505224634 78 238 11.0 18.0 0.00 0.00 0.00 36
20260505224408 78 238 11.0 18.0 0.00 0.00 0.00 36
20260505224136 78 264 10.0 18.0 0.00 0.00 0.00 37
20260505223908 78 264 10.0 18.0 0.00 0.00 0.00 37
20260505223623 78 246 12.0 18.0 0.00 0.00 0.00 37
20260505223408 78 246 12.0 18.0 0.00 0.00 0.00 37
20260505223137 78 245 11.0 20.0 0.00 0.00 0.00 37
20260505222908 78 245 11.0 20.0 0.00 0.00 0.00 37
20260505222652 78 250 12.0 20.0 0.00 0.00 0.00 37
20260505222408 78 250 12.0 20.0 0.00 0.00 0.00 37
20260505222212 78 244 12.0 20.0 0.00 0.00 0.00 37
20260505221908 78 244 12.0 20.0 0.00 0.00 0.00 37
20260505221655 77 237 12.0 20.0 0.00 0.00 0.00 37
20260505221409 77 237 12.0 20.0 0.00 0.00 0.00 37
20260505221033 76 247 11.0 21.0 0.00 0.00 0.00 37
20260505220908 76 247 11.0 21.0 0.00 0.00 0.00 37
20260505220453 77 255 11.0 21.0 0.00 0.00 0.00 37
20260505220408 77 255 11.0 21.0 0.00 0.00 0.00 37
20260505215910 77 251 12.0 21.0 0.00 0.00 0.00 37
20260505215408 75 248 11.0 21.0 0.00 0.00 0.00 37
20260505214908 74 261 10.0 19.0 0.00 0.00 0.00 37
20260505214409 73 250 10.0 21.0 0.00 0.00 0.00 37
20260505212910 73 264 12.0 18.0 0.00 0.00 0.00 37
20260505212502 72 265 11.0 18.0 0.00 0.00 0.00 38
20260505212413 72 265 11.0 18.0 0.00 0.00 0.00 38
20260505211956 72 248 9.0 16.0 0.00 0.00 0.00 38
20260505210911 73 228 11.0 16.0 0.00 0.00 0.00 38
20260505205409 73 223 10.0 15.0 0.00 0.00 0.00 38
20260505204909 73 218 10.0 18.0 0.00 0.00 0.00 38
20260505204502 73 225 11.0 18.0 0.00 0.00 0.00 38
20260505204409 73 225 11.0 18.0 0.00 0.00 0.00 38
20260505203915 74 226 9.0 14.0 0.00 0.00 0.00 38
20260505202909 74 250 9.0 16.0 0.00 0.00 0.00 38
20260505201643 74 250 5.0 10.0 0.00 0.00 0.00 39
20260505201408 74 250 5.0 10.0 0.00 0.00 0.00 39
20260505201051 74 307 3.0 8.0 0.00 0.00 0.00 40
20260505200908 74 307 3.0 8.0 0.00 0.00 0.00 40
20260505200634 74 280 5.0 9.0 0.00 0.00 0.00 40
20260505200409 74 280 5.0 9.0 0.00 0.00 0.00 40
20260505200139 74 303 4.0 9.0 0.00 0.00 0.00 40
20260505195908 74 303 4.0 9.0 0.00 0.00 0.00 40
20260505195637 75 348 3.0 9.0 0.00 0.00 0.00 42
20260505195408 75 348 3.0 9.0 0.00 0.00 0.00 42
20260505195322 76 261 4.0 9.0 0.00 0.00 0.00 40
20260505194908 76 261 4.0 9.0 0.00 0.00 0.00 40
20260505194548 76 320 3.0 8.0 0.00 0.00 0.00 41
20260505194408 76 320 3.0 8.0 0.00 0.00 0.00 41
20260505194220 74 313 3.0 8.0 0.00 0.00 0.00 41
20260505193908 74 313 3.0 8.0 0.00 0.00 0.00 41
20260505193627 74 312 3.0 6.0 0.00 0.00 0.00 42
20260505193408 74 312 3.0 6.0 0.00 0.00 0.00 42
20260505193223 74 314 3.0 6.0 0.00 0.00 0.00 40
20260505192908 74 314 3.0 6.0 0.00 0.00 0.00 40
20260505192721 75 324 3.0 9.0 0.00 0.00 0.00 39
20260505192640 75 324 3.0 9.0 0.00 0.00 0.00 39
20260505192408 75 324 3.0 9.0 0.00 0.00 0.00 39
20260505192316 75 313 4.0 10.0 0.00 0.00 0.00 40
20260505191908 75 313 4.0 10.0 0.00 0.00 0.00 40
20260505191721 74 315 3.0 10.0 0.00 0.00 0.00 40
20260505191408 74 315 3.0 10.0 0.00 0.00 0.00 40
20260505191244 74 316 4.0 9.0 0.00 0.00 0.00 40
20260505190909 74 316 4.0 9.0 0.00 0.00 0.00 40
20260505190720 74 303 4.0 10.0 0.00 0.00 0.00 39
20260505190408 74 303 4.0 10.0 0.00 0.00 0.00 39
20260505185757 75 317 2.0 6.0 0.00 0.00 0.00 41
20260505185408 75 317 2.0 6.0 0.00 0.00 0.00 41
20260505185256 76 303 3.0 6.0 0.00 0.00 0.00 42
20260505184908 76 303 3.0 6.0 0.00 0.00 0.00 42
20260505184658 74 310 3.0 6.0 0.00 0.00 0.00 42
20260505184408 74 310 3.0 6.0 0.00 0.00 0.00 42
20260505183637 74 317 3.0 7.0 0.00 0.00 0.00 39
20260505183408 74 317 3.0 7.0 0.00 0.00 0.00 39
20260505183259 74 264 4.0 7.0 0.00 0.00 0.00 39
20260505182908 74 264 4.0 7.0 0.00 0.00 0.00 39
20260505182812 73 315 3.0 7.0 0.00 0.00 0.00 38
20260505182408 73 315 3.0 7.0 0.00 0.00 0.00 38
20260505182146 73 317 3.0 7.0 0.00 0.00 0.00 39
20260505181908 73 317 3.0 7.0 0.00 0.00 0.00 39
20260505181639 74 262 4.0 8.0 0.00 0.00 0.00 39
20260505181408 74 262 4.0 8.0 0.00 0.00 0.00 39
20260505181258 75 270 3.0 8.0 0.00 0.00 0.00 39
20260505180908 75 270 3.0 8.0 0.00 0.00 0.00 39
20260505180714 75 318 2.0 7.0 0.00 0.00 0.00 41
20260505180408 75 318 2.0 7.0 0.00 0.00 0.00 41
20260505180220 74 225 4.0 7.0 0.00 0.00 0.00 39
20260505175909 74 225 4.0 7.0 0.00 0.00 0.00 39
20260505175744 74 233 3.0 5.0 0.00 0.00 0.00 43
20260505175408 74 233 3.0 5.0 0.00 0.00 0.00 43
20260505175221 74 85 2.0 5.0 0.00 0.00 0.00 50
20260505174908 74 85 2.0 5.0 0.00 0.00 0.00 50
20260505174658 72 181 2.0 5.0 0.00 0.00 0.00 46
20260505174408 72 181 2.0 5.0 0.00 0.00 0.00 46
20260505174202 71 6 1.0 6.0 0.00 0.00 0.00 49
20260505173908 71 6 1.0 6.0 0.00 0.00 0.00 49
20260505173633 72 302 1.0 6.0 0.00 0.00 0.00 46
20260505173408 72 302 1.0 6.0 0.00 0.00 0.00 46
20260505173233 72 314 2.0 6.0 0.00 0.00 0.00 45
20260505172908 72 314 2.0 6.0 0.00 0.00 0.00 45
20260505172653 71 4 1.0 4.0 0.00 0.00 0.00 47
20260505172408 71 4 1.0 4.0 0.00 0.00 0.00 47
20260505172050 71 1 1.0 6.0 0.00 0.00 0.00 46
20260505171908 71 1 1.0 6.0 0.00 0.00 0.00 46
20260505171716 72 242 3.0 6.0 0.00 0.00 0.00 40
20260505171408 72 242 3.0 6.0 0.00 0.00 0.00 40
20260505171238 71 264 3.0 5.0 0.00 0.00 0.00 41
20260505170908 71 264 3.0 5.0 0.00 0.00 0.00 41
20260505170741 71 307 2.0 4.0 0.00 0.00 0.00 44
20260505170408 71 307 2.0 4.0 0.00 0.00 0.00 44
20260505170211 70 306 1.0 3.0 0.00 0.00 0.00 44
20260505165908 70 306 1.0 3.0 0.00 0.00 0.00 44
20260505165631 67 132 1.0 3.0 0.00 0.00 0.00 44
20260505165408 67 132 1.0 3.0 0.00 0.00 0.00 44
20260505165254 66 224 1.0 4.0 0.00 0.00 0.00 40
20260505164908 66 224 1.0 4.0 0.00 0.00 0.00 40
20260505164652 64 264 1.0 4.0 0.00 0.00 0.00 39
20260505164408 64 264 1.0 4.0 0.00 0.00 0.00 39
20260505164222 64 275 1.0 5.0 0.00 0.00 0.00 39
20260505163908 64 275 1.0 5.0 0.00 0.00 0.00 39
20260505163756 64 264 3.0 5.0 0.00 0.00 0.00 39
20260505163408 64 264 3.0 5.0 0.00 0.00 0.00 39
20260505163220 64 275 2.0 4.0 0.00 0.00 0.00 39
20260505162908 64 275 2.0 4.0 0.00 0.00 0.00 39
20260505162714 64 270 2.0 4.0 0.00 0.00 0.00 39
20260505162408 64 270 2.0 4.0 0.00 0.00 0.00 39
20260505162327 64 281 2.0 5.0 0.00 0.00 0.00 39
20260505161908 64 281 2.0 5.0 0.00 0.00 0.00 39
20260505161817 64 251 3.0 5.0 0.00 0.00 0.00 39
20260505161408 64 251 3.0 5.0 0.00 0.00 0.00 39
20260505161258 64 247 3.0 4.0 0.00 0.00 0.00 39
20260505160908 64 247 3.0 4.0 0.00 0.00 0.00 39
20260505160647 64 266 1.0 3.0 0.00 0.00 0.00 39
20260505160408 64 266 1.0 3.0 0.00 0.00 0.00 39
20260505160311 64 263 1.0 3.0 0.00 0.00 0.00 39
20260505153241 60 255 0.0 0.0 0.00 0.00 0.00 39
20260505152908 60 255 0.0 0.0 0.00 0.00 0.00 39
20260505152728 60 243 0.0 0.0 0.00 0.00 0.00 39
20260505152408 60 243 0.0 0.0 0.00 0.00 0.00 39
20260505152240 60 256 0.0 0.0 0.00 0.00 0.00 39
20260505151909 60 256 0.0 0.0 0.00 0.00 0.00 39
20260505151711 59 252 0.0 0.0 0.00 0.00 0.00 39
20260505151408 59 252 0.0 0.0 0.00 0.00 0.00 39
20260505151312 59 85 0.0 0.0 0.00 0.00 0.00 39
20260505150908 59 85 0.0 0.0 0.00 0.00 0.00 39
20260505150733 58 152 0.0 0.0 0.00 0.00 0.00 39
20260505150408 58 152 0.0 0.0 0.00 0.00 0.00 39
20260505140617 56 81 0.0 0.0 0.00 0.00 0.00 40
20260505140408 56 81 0.0 0.0 0.00 0.00 0.00 40
20260505140237 56 62 0.0 2.0 0.00 0.00 0.00 40
20260505130219 55 341 0.0 0.0 0.00 0.00 0.00 38
20260505124908 55 227 0.0 0.0 0.00 0.00 0.00 38
20260505124638 55 225 0.0 0.0 0.00 0.00 0.00 38
20260505124408 55 225 0.0 0.0 0.00 0.00 0.00 38
20260505124220 55 255 0.0 2.0 0.00 0.00 0.00 39
20260505123908 55 255 0.0 2.0 0.00 0.00 0.00 39
20260505123637 55 90 0.0 2.0 0.00 0.00 0.00 41
20260505123408 55 90 0.0 2.0 0.00 0.00 0.00 41
20260505123243 55 107 0.0 3.0 0.00 0.00 0.00 42
20260505122908 55 107 0.0 3.0 0.00 0.00 0.00 42
20260505122659 55 193 0.0 3.0 0.00 0.00 0.00 38
20260505122408 55 193 0.0 3.0 0.00 0.00 0.00 38
20260505122252 55 211 0.0 0.0 0.00 0.00 0.00 38
20260505121908 55 211 0.0 0.0 0.00 0.00 0.00 38
20260505121754 55 181 0.0 0.0 0.00 0.00 0.00 38
20260505121408 55 181 0.0 0.0 0.00 0.00 0.00 38
20260505121345 55 183 0.0 0.0 0.00 0.00 0.00 38
20260505120908 55 183 0.0 0.0 0.00 0.00 0.00 38
20260505120704 55 237 0.0 0.0 0.00 0.00 0.00 38
20260505120408 55 237 0.0 0.0 0.00 0.00 0.00 38
20260505120251 55 22 0.0 0.0 0.00 0.00 0.00 37
20260505115908 55 22 0.0 0.0 0.00 0.00 0.00 37
20260505115658 55 37 0.0 0.0 0.00 0.00 0.00 37
20260505115511 55 298 0.0 0.0 0.00 0.00 0.00 38
20260505115408 55 37 0.0 0.0 0.00 0.00 0.00 37
20260505114909 55 298 0.0 0.0 0.00 0.00 0.00 38
20260505114802 55 45 0.0 0.0 0.00 0.00 0.00 37
20260505114409 55 45 0.0 0.0 0.00 0.00 0.00 37
20260505114256 55 60 0.0 0.0 0.00 0.00 0.00 37
20260505113910 55 60 0.0 0.0 0.00 0.00 0.00 37
20260505113637 55 202 0.0 0.0 0.00 0.00 0.00 38
20260505113408 55 202 0.0 0.0 0.00 0.00 0.00 38
20260505113239 55 160 0.0 0.0 0.00 0.00 0.00 38
20260505112908 55 160 0.0 0.0 0.00 0.00 0.00 38
20260505112731 55 300 0.0 0.0 0.00 0.00 0.00 38
20260505112408 55 300 0.0 0.0 0.00 0.00 0.00 38
20260505112328 55 97 0.0 0.0 0.00 0.00 0.00 39
20260505111908 55 97 0.0 0.0 0.00 0.00 0.00 39
20260505111755 55 256 0.0 0.0 0.00 0.00 0.00 38
20260505111408 55 256 0.0 0.0 0.00 0.00 0.00 38
20260505111321 55 85 0.0 0.0 0.00 0.00 0.00 39
20260505110908 55 85 0.0 0.0 0.00 0.00 0.00 39
20260505110707 55 193 0.0 0.0 0.00 0.00 0.00 38
20260505110408 55 193 0.0 0.0 0.00 0.00 0.00 38
20260505110247 55 354 0.0 0.0 0.00 0.00 0.00 37
20260505101908 55 353 0.0 2.0 0.00 0.00 0.00 37
20260505101854 55 8 0.0 2.0 0.00 0.00 0.00 37
20260505101408 55 8 0.0 2.0 0.00 0.00 0.00 37
20260505101327 55 2 0.0 0.0 0.00 0.00 0.00 37
20260505100909 55 2 0.0 0.0 0.00 0.00 0.00 37
20260505100720 55 15 0.0 0.0 0.00 0.00 0.00 37
20260505100408 55 15 0.0 0.0 0.00 0.00 0.00 37
20260505100221 55 68 0.0 1.0 0.00 0.00 0.00 38
20260505095908 55 68 0.0 1.0 0.00 0.00 0.00 38
20260505095747 55 174 0.0 6.0 0.00 0.00 0.00 38
20260505095422 55 196 2.0 6.0 0.00 0.00 0.00 39
20260505095408 55 174 0.0 6.0 0.00 0.00 0.00 38
20260505094908 55 196 2.0 6.0 0.00 0.00 0.00 39
20260505094714 55 181 1.0 6.0 0.00 0.00 0.00 40
20260505094408 55 181 1.0 6.0 0.00 0.00 0.00 40
20260505094257 55 187 2.0 6.0 0.00 0.00 0.00 40
20260505093908 55 187 2.0 6.0 0.00 0.00 0.00 40
20260505093624 55 182 1.0 6.0 0.00 0.00 0.00 40
20260505093408 55 182 1.0 6.0 0.00 0.00 0.00 40
20260505093238 55 173 2.0 6.0 0.00 0.00 0.00 40
20260505092909 55 173 2.0 6.0 0.00 0.00 0.00 40
20260505092727 55 188 2.0 5.0 0.00 0.00 0.00 41
20260505092408 55 188 2.0 5.0 0.00 0.00 0.00 41
20260505092239 55 147 1.0 6.0 0.00 0.00 0.00 43
20260505091908 55 147 1.0 6.0 0.00 0.00 0.00 43
20260505091657 55 141 1.0 6.0 0.00 0.00 0.00 43
20260505091411 55 141 1.0 6.0 0.00 0.00 0.00 43
20260505091327 55 146 1.0 5.0 0.00 0.00 0.00 42
20260505090909 55 146 1.0 5.0 0.00 0.00 0.00 42
20260505090613 55 143 1.0 6.0 0.00 0.00 0.00 42
20260505090408 55 143 1.0 6.0 0.00 0.00 0.00 42
20260505090242 55 144 1.0 6.0 0.00 0.00 0.00 42
20260505085911 55 144 1.0 6.0 0.00 0.00 0.00 42
20260505085737 55 131 0.0 4.0 0.00 0.00 0.00 43
20260505085408 55 131 0.0 4.0 0.00 0.00 0.00 43
20260505085312 55 125 0.0 4.0 0.00 0.00 0.00 42
20260505084908 55 125 0.0 4.0 0.00 0.00 0.00 42
20260505084250 55 144 0.0 4.0 0.00 0.00 0.00 41
20260505083909 55 144 0.0 4.0 0.00 0.00 0.00 41
20260505083745 55 153 0.0 3.0 0.00 0.00 0.00 39
20260505083408 55 153 0.0 3.0 0.00 0.00 0.00 39
20260505083239 55 125 0.0 0.0 0.00 0.00 0.00 39
20260505082908 55 125 0.0 0.0 0.00 0.00 0.00 39
20260505082755 55 102 0.0 0.0 0.00 0.00 0.00 40
20260505082408 55 102 0.0 0.0 0.00 0.00 0.00 40
20260505082311 55 100 0.0 0.0 0.00 0.00 0.00 41
20260505081908 55 100 0.0 0.0 0.00 0.00 0.00 41
20260505081756 55 107 0.0 0.0 0.00 0.00 0.00 40
20260505081408 55 107 0.0 0.0 0.00 0.00 0.00 40
20260505081257 55 121 0.0 0.0 0.00 0.00 0.00 40
20260505080909 55 121 0.0 0.0 0.00 0.00 0.00 40
20260505080700 55 98 0.0 0.0 0.00 0.00 0.00 39
20260505080409 55 98 0.0 0.0 0.00 0.00 0.00 39
20260505080302 55 106 0.0 0.0 0.00 0.00 0.00 38
20260505075908 55 106 0.0 0.0 0.00 0.00 0.00 38
20260505075731 55 82 0.0 0.0 0.00 0.00 0.00 37
20260505075410 55 82 0.0 0.0 0.00 0.00 0.00 37
20260505075149 55 90 0.0 0.0 0.00 0.00 0.00 37
20260505074908 55 90 0.0 0.0 0.00 0.00 0.00 37
20260505074756 55 161 0.0 0.0 0.00 0.00 0.00 36
20260505074408 55 161 0.0 0.0 0.00 0.00 0.00 36
20260505074258 55 171 0.0 0.0 0.00 0.00 0.00 37
20260505073908 55 171 0.0 0.0 0.00 0.00 0.00 37
20260505073704 55 132 0.0 0.0 0.00 0.00 0.00 37
20260505073408 55 132 0.0 0.0 0.00 0.00 0.00 37
20260505073242 55 123 0.0 0.0 0.00 0.00 0.00 38
20260505072908 55 123 0.0 0.0 0.00 0.00 0.00 38
20260505072655 55 92 0.0 0.0 0.00 0.00 0.00 38
20260505072408 55 92 0.0 0.0 0.00 0.00 0.00 38
20260505072225 55 67 0.0 0.0 0.00 0.00 0.00 37
20260505071908 55 67 0.0 0.0 0.00 0.00 0.00 37
20260505071724 55 116 0.0 0.0 0.00 0.00 0.00 38
20260505071409 55 116 0.0 0.0 0.00 0.00 0.00 38
20260505071256 55 147 0.0 0.0 0.00 0.00 0.00 38
20260505070909 55 147 0.0 0.0 0.00 0.00 0.00 38
20260505070630 55 119 0.0 0.0 0.00 0.00 0.00 39
20260505070408 55 119 0.0 0.0 0.00 0.00 0.00 39
20260505070159 55 106 0.0 0.0 0.00 0.00 0.00 40
20260505065911 55 106 0.0 0.0 0.00 0.00 0.00 40
20260505065758 55 80 0.0 0.0 0.00 0.00 0.00 38
20260505065412 55 80 0.0 0.0 0.00 0.00 0.00 38
20260505064908 55 68 0.0 0.0 0.00 0.00 0.00 36
20260505064743 55 47 0.0 0.0 0.00 0.00 0.00 36
20260505064408 55 47 0.0 0.0 0.00 0.00 0.00 36
20260505064236 55 64 0.0 0.0 0.00 0.00 0.00 37
20260505063909 55 64 0.0 0.0 0.00 0.00 0.00 37
20260505063720 55 130 0.0 0.0 0.00 0.00 0.00 37
20260505063409 55 130 0.0 0.0 0.00 0.00 0.00 37
20260505063256 55 61 0.0 0.0 0.00 0.00 0.00 36
20260505062909 55 61 0.0 0.0 0.00 0.00 0.00 36
20260505062749 55 45 0.0 0.0 0.00 0.00 0.00 37
20260505062409 55 45 0.0 0.0 0.00 0.00 0.00 37
20260505062256 55 24 0.0 0.0 0.00 0.00 0.00 36
20260505061908 55 24 0.0 0.0 0.00 0.00 0.00 36
20260505061818 55 40 0.0 0.0 0.00 0.00 0.00 36
20260505061409 55 40 0.0 0.0 0.00 0.00 0.00 36
20260505061351 55 64 0.0 0.0 0.00 0.00 0.00 36
20260505060909 55 64 0.0 0.0 0.00 0.00 0.00 36
20260505060756 55 45 0.0 0.0 0.00 0.00 0.00 36
20260505060409 55 45 0.0 0.0 0.00 0.00 0.00 36
20260505060255 55 84 0.0 0.0 0.00 0.00 0.00 36
20260505055909 55 84 0.0 0.0 0.00 0.00 0.00 36
20260505055409 55 88 0.0 0.0 0.00 0.00 0.00 37
20260505055227 55 76 0.0 0.0 0.00 0.00 0.00 37
20260505054909 55 76 0.0 0.0 0.00 0.00 0.00 37
20260505054656 55 72 0.0 0.0 0.00 0.00 0.00 36
20260505054409 55 72 0.0 0.0 0.00 0.00 0.00 36
20260505054327 55 54 0.0 0.0 0.00 0.00 0.00 36
20260505053911 55 54 0.0 0.0 0.00 0.00 0.00 36
20260505053814 55 64 0.0 0.0 0.00 0.00 0.00 37
20260505053409 55 64 0.0 0.0 0.00 0.00 0.00 37
20260505053220 55 74 0.0 0.0 0.00 0.00 0.00 37
20260505052909 55 74 0.0 0.0 0.00 0.00 0.00 37
20260505052756 55 104 0.0 0.0 0.00 0.00 0.00 38
20260505052410 55 104 0.0 0.0 0.00 0.00 0.00 38
20260505052214 55 112 0.0 0.0 0.00 0.00 0.00 39
20260505051909 55 112 0.0 0.0 0.00 0.00 0.00 39
20260505051755 54 124 0.0 0.0 0.00 0.00 0.00 39
20260505051409 54 124 0.0 0.0 0.00 0.00 0.00 39
20260505051243 54 80 0.0 0.0 0.00 0.00 0.00 38
20260505050909 54 80 0.0 0.0 0.00 0.00 0.00 38
20260505050633 54 68 0.0 0.0 0.00 0.00 0.00 38
20260505050409 54 68 0.0 0.0 0.00 0.00 0.00 38
20260505050135 54 129 0.0 0.0 0.00 0.00 0.00 41
20260505041255 53 26 0.0 0.0 0.00 0.00 0.00 37
20260505040909 53 26 0.0 0.0 0.00 0.00 0.00 37
20260505040655 54 43 0.0 0.0 0.00 0.00 0.00 37
20260505040409 54 43 0.0 0.0 0.00 0.00 0.00 37
20260505040215 54 45 0.0 0.0 0.00 0.00 0.00 37
20260505035909 54 45 0.0 0.0 0.00 0.00 0.00 37
20260505035807 54 46 0.0 0.0 0.00 0.00 0.00 38
20260505035409 54 46 0.0 0.0 0.00 0.00 0.00 38
20260505035318 54 49 0.0 0.0 0.00 0.00 0.00 38
20260505034909 54 49 0.0 0.0 0.00 0.00 0.00 38
20260505034705 54 58 0.0 0.0 0.00 0.00 0.00 38
20260505034409 54 58 0.0 0.0 0.00 0.00 0.00 38
20260505033911 54 66 0.0 0.0 0.00 0.00 0.00 41
20260505033755 54 67 0.0 3.0 0.00 0.00 0.00 43
20260505033409 54 67 0.0 3.0 0.00 0.00 0.00 43
20260505033255 54 53 0.0 4.0 0.00 0.00 0.00 41
20260505032909 54 53 0.0 4.0 0.00 0.00 0.00 41
20260505032313 54 62 0.0 4.0 0.00 0.00 0.00 42
20260505031909 54 62 0.0 4.0 0.00 0.00 0.00 42
20260505031755 54 42 0.0 0.0 0.00 0.00 0.00 39
20260505031409 54 42 0.0 0.0 0.00 0.00 0.00 39
20260505031316 55 29 0.0 0.0 0.00 0.00 0.00 37
20260505030909 55 29 0.0 0.0 0.00 0.00 0.00 37
20260505030823 55 31 0.0 0.0 0.00 0.00 0.00 37
20260505030409 55 31 0.0 0.0 0.00 0.00 0.00 37
20260505025910 55 31 0.0 0.0 0.00 0.00 0.00 37
20260505025409 55 25 0.0 0.0 0.00 0.00 0.00 36
20260505024909 55 20 0.0 0.0 0.00 0.00 0.00 36
20260505024536 55 36 0.0 0.0 0.00 0.00 0.00 38
20260505024410 55 36 0.0 0.0 0.00 0.00 0.00 38
20260505023954 55 45 0.0 0.0 0.00 0.00 0.00 37
20260505023909 55 45 0.0 0.0 0.00 0.00 0.00 37
20260505023409 55 28 0.0 0.0 0.00 0.00 0.00 37
20260505022909 55 36 0.0 0.0 0.00 0.00 0.00 38
20260505022410 55 40 0.0 0.0 0.00 0.00 0.00 39
20260505021909 55 41 0.0 0.0 0.00 0.00 0.00 40
20260505021409 55 30 0.0 0.0 0.00 0.00 0.00 38
20260505020909 55 35 0.0 0.0 0.00 0.00 0.00 39
20260505020409 56 68 0.0 0.0 0.00 0.00 0.00 40
20260505015909 56 100 0.0 0.0 0.00 0.00 0.00 40
20260505015409 56 86 0.0 0.0 0.00 0.00 0.00 39
20260505014909 56 54 0.0 0.0 0.00 0.00 0.00 40
20260505014409 56 54 0.0 0.0 0.00 0.00 0.00 41
20260505013909 56 52 0.0 0.0 0.00 0.00 0.00 40
20260505013409 56 49 0.0 0.0 0.00 0.00 0.00 39
20260505012909 56 46 0.0 0.0 0.00 0.00 0.00 39
20260505012409 56 45 0.0 0.0 0.00 0.00 0.00 38
20260505011909 56 40 0.0 0.0 0.00 0.00 0.00 37
20260505011409 56 34 0.0 0.0 0.00 0.00 0.00 37
20260505010909 56 41 0.0 4.0 0.00 0.00 0.00 41
20260505010409 56 42 0.0 4.0 0.00 0.00 0.00 39
20260505005909 56 27 0.0 4.0 0.00 0.00 0.00 36
20260505005409 57 34 0.0 4.0 0.00 0.00 0.00 39
20260505004909 58 18 0.0 0.0 0.00 0.00 0.00 36
20260505004409 59 5 0.0 0.0 0.00 0.00 0.00 38
20260505003909 60 20 0.0 0.0 0.00 0.00 0.00 40
20260505003409 61 4 0.0 0.0 0.00 0.00 0.00 39
20260505002909 62 38 0.0 0.0 0.00 0.00 0.00 38
20260505002409 63 31 0.0 0.0 0.00 0.00 0.00 37
20260505001909 64 8 0.0 0.0 0.00 0.00 0.00 35
20260505001409 65 4 0.0 0.0 0.00 0.00 0.00 33
20260505000909 67 358 0.0 0.0 0.00 0.00 0.00 32
20260505000409 67 350 0.0 5.0 0.00 0.00 0.00 32
20260504235909 68 358 0.0 11.0 0.00 0.00 0.00 32
20260504235409 70 1 3.0 11.0 0.00 0.00 0.00 29
20260504234909 71 350 3.0 10.0 0.00 0.00 0.00 27
20260504234409 72 311 6.0 16.0 0.00 0.00 0.00 27
20260504233909 72 282 8.0 18.0 0.00 0.00 0.00 27
20260504233409 73 281 10.0 18.0 0.00 0.00 0.00 27